Regional Weather Roundup
Issued by NWS

Home | Current Version | Previous Version | Graphics & Text | Print | Product List | Glossary On
Versions: 1 2 3 4 5 6 7 8 9 10 11 12 13 14 15 16 17 18 19 20 21 22 23 24 25 26 27 28 29 30 31 32 33 34 35 36 37 38 39 40 41 42 43 44 45 46 47 48 49 50
000
ASUS43 KLMK 281910
RWRKY
KENTUCKY REGIONAL WEATHER ROUNDUP
NATIONAL WEATHER SERVICE LOUISVILLE KY
300 PM EDT SAT MAY 28 2016

NOTE "FAIR" INDICATES FEW OR NO CLOUDS BELOW 12,000 FEET
WITH NO SIGNIFICANT WEATHER AND/OR OBSTRUCTIONS TO VISIBILITY.

KYZ001>023-026-027-061>063-070>075-282000-
WESTERN AND SOUTH CENTRAL KENTUCKY

CITY           SKY/WX    TMP DP  RH WIND       PRES   REMARKS
PADUCAH        CLOUDY    82  66  58 SW8       30.00F
HENDERSON      CLOUDY    81  64  57 S14G22    30.01S
OWENSBORO      CLOUDY    83  67  58 S21       30.04F
HOPKINSVILLE   CLOUDY    80  65  60 SE10      30.05S
BOWLING GREEN  CLOUDY    78  67  68 SE8       30.09R
GLASGOW        CLOUDY    76  64  65 S7        30.11S
$$

KYZ024-025-028>034-038-045-046-053-282000-
NORTH CENTRAL KENTUCKY

CITY           SKY/WX    TMP DP  RH WIND       PRES   REMARKS
LOUISVILLE/SDF CLOUDY    84  64  50 S15G22    30.05F
LOUISVILLE/LOU CLOUDY    83  67  58 S9        30.06F
FORT KNOX      CLOUDY    80  66  61 S12       30.06S
$$

KYZ035>037-039>044-047>052-055>060-089>105-282000-
NORTHEAST KENTUCKY

CITY           SKY/WX    TMP DP  RH WIND       PRES   REMARKS
LEXINGTON      SUNNY     84  59  42 SW12      30.11F
COVINGTON      NOT AVBL
FRANKFORT      MOSUNNY   85  62  46 SW10      30.08F
$$

KYZ054-064>069-076>088-106>120-282000-
SOUTHEAST KENTUCKY

CITY           SKY/WX    TMP DP  RH WIND       PRES   REMARKS
JACKSON        MOSUNNY   81  64  56 CALM      30.14F
LONDON         PTSUNNY   81  60  48 VRB5      30.13F
SOMERSET       MOSUNNY   81  59  47 SW5       30.13S
MIDDLESBORO    SUNNY     82  61  48 S6        30.14F
MONTICELLO     MOCLDY    83  66  56 VRB5      30.13F
$$





USA.gov is the U.S. government's official web portal to all federal, state and local government web resources and services.